J11 EFTP-EFTP

Flight info

Callsign J11
Flight time 0h 27m
Altitude 1500
Route TC
Aircraft F35/M-SDGIRUY/C

Departure

Time 2026-04-16 15:26
Airport Tampere-Pirkkala Airport (EFTP)

Arrival

Time 2026-04-16 15:54
Airport Tampere-Pirkkala Airport (EFTP)
Time Latitude Longitude Altitude Speed Heading
2026-04-16 15:16 61.40738 23.61487 373 ft 0 kts 314°
2026-04-16 15:20 61.40739 23.61485 373 ft 2 kts 322°
2026-04-16 15:20 61.40773 23.61511 373 ft 8 kts 39°
2026-04-16 15:20 61.40810 23.61577 375 ft 6 kts 32°
2026-04-16 15:20 61.40844 23.61601 376 ft 5 kts 13°
2026-04-16 15:21 61.40882 23.61688 377 ft 10 kts 70°
2026-04-16 15:21 61.40903 23.61808 379 ft 8 kts 69°
2026-04-16 15:21 61.40920 23.61898 381 ft 6 kts 68°
2026-04-16 15:21 61.40959 23.62053 385 ft 13 kts 51°
2026-04-16 15:22 61.41028 23.62165 392 ft 16 kts 29°
2026-04-16 15:22 61.41120 23.62248 394 ft 13 kts 23°
2026-04-16 15:22 61.41221 23.62334 387 ft 18 kts 22°
2026-04-16 15:22 61.41334 23.62434 383 ft 18 kts 22°
2026-04-16 15:23 61.41452 23.62537 384 ft 18 kts 21°
2026-04-16 15:23 61.41554 23.62626 383 ft 15 kts 24°
2026-04-16 15:23 61.41646 23.62707 378 ft 14 kts 22°
2026-04-16 15:23 61.41741 23.62791 373 ft 13 kts 23°
2026-04-16 15:24 61.41810 23.62847 372 ft 6 kts 14°
2026-04-16 15:24 61.41820 23.62850 372 ft 0 kts
2026-04-16 15:24 61.41828 23.62849 372 ft 7 kts 355°
2026-04-16 15:25 61.41885 23.62781 368 ft 8 kts 316°
2026-04-16 15:25 61.41925 23.62692 368 ft 8 kts 297°
2026-04-16 15:25 61.41919 23.62642 369 ft 12 kts 245°
2026-04-16 15:25 61.41534 23.60976 440 ft 241 kts 244°
2026-04-16 15:26 61.40641 23.57069 712 ft 298 kts 245°
2026-04-16 15:26 61.39299 23.55922 1122 ft 191 kts 153°
2026-04-16 15:26 61.38059 23.57189 1075 ft 217 kts 150°
2026-04-16 15:26 61.37349 23.59829 1128 ft 231 kts 78°
2026-04-16 15:27 61.37905 23.63108 1105 ft 234 kts 68°
2026-04-16 15:27 61.38491 23.66089 1081 ft 210 kts 66°
2026-04-16 15:27 61.39070 23.68776 1076 ft 201 kts 65°
2026-04-16 15:27 61.39658 23.71439 1068 ft 209 kts 64°
2026-04-16 15:28 61.40291 23.74227 1043 ft 212 kts 56°
2026-04-16 15:28 61.41511 23.74370 927 ft 220 kts 328°
2026-04-16 15:28 61.42955 23.72310 989 ft 264 kts 324°
2026-04-16 15:28 61.43200 23.69237 976 ft 210 kts 259°
2026-04-16 15:29 61.42812 23.66585 773 ft 181 kts 249°
2026-04-16 15:29 61.42277 23.64266 577 ft 175 kts 244°
2026-04-16 15:29 61.41765 23.61982 379 ft 160 kts 244°
2026-04-16 15:29 61.41283 23.59855 483 ft 230 kts 245°
2026-04-16 15:30 61.40528 23.56308 724 ft 259 kts 268°
2026-04-16 15:30 61.41346 23.54116 827 ft 207 kts 328°
2026-04-16 15:30 61.42750 23.52130 807 ft 266 kts 328°
2026-04-16 15:30 61.44147 23.52258 759 ft 208 kts 61°
2026-04-16 15:31 61.44779 23.55059 801 ft 249 kts 65°
2026-04-16 15:31 61.45433 23.57975 812 ft 277 kts 65°
2026-04-16 15:31 61.46232 23.61544 837 ft 262 kts 72°
2026-04-16 15:31 61.45466 23.63942 934 ft 211 kts 153°
2026-04-16 15:32 61.44205 23.65046 831 ft 182 kts 155°
2026-04-16 15:32 61.43139 23.65730 727 ft 151 kts 184°
2026-04-16 15:32 61.42281 23.64323 630 ft 181 kts 247°
2026-04-16 15:32 61.41748 23.61906 378 ft 171 kts 245°
2026-04-16 15:33 61.41252 23.59718 432 ft 223 kts 245°
2026-04-16 15:33 61.40457 23.56243 749 ft 287 kts 245°
2026-04-16 15:33 61.40461 23.53279 1004 ft 178 kts 326°
2026-04-16 15:33 61.41841 23.51243 985 ft 303 kts 327°
2026-04-16 15:34 61.43679 23.49593 1096 ft 271 kts 29°
2026-04-16 15:34 61.44694 23.53118 1109 ft 319 kts 65°
2026-04-16 15:34 61.45599 23.57210 1065 ft 296 kts 65°
2026-04-16 15:34 61.46388 23.60839 1024 ft 259 kts 65°
2026-04-16 15:35 61.47088 23.64052 993 ft 234 kts 65°
2026-04-16 15:35 61.47733 23.67035 877 ft 217 kts 80°
2026-04-16 15:35 61.46834 23.69037 806 ft 228 kts 159°
2026-04-16 15:35 61.45264 23.70142 891 ft 242 kts 160°
2026-04-16 15:36 61.43884 23.69550 889 ft 209 kts 225°
2026-04-16 15:36 61.42972 23.67231 719 ft 201 kts 243°
2026-04-16 15:36 61.42388 23.64692 613 ft 188 kts 246°
2026-04-16 15:36 61.41827 23.62246 373 ft 174 kts 245°
2026-04-16 15:37 61.41351 23.60161 405 ft 212 kts 244°
2026-04-16 15:37 61.40515 23.56576 686 ft 304 kts 245°
2026-04-16 15:37 61.41090 23.53943 787 ft 218 kts 322°
2026-04-16 15:37 61.42341 23.51491 899 ft 276 kts 316°
2026-04-16 15:38 61.43815 23.48422 1107 ft 303 kts 317°
2026-04-16 15:38 61.44518 23.45194 1275 ft 214 kts 226°
2026-04-16 15:38 61.42877 23.43983 1286 ft 297 kts 191°
2026-04-16 15:38 61.40838 23.43054 1397 ft 303 kts 190°
2026-04-16 15:39 61.38755 23.42061 1408 ft 307 kts 187°
2026-04-16 15:39 61.37467 23.43734 1451 ft 201 kts 65°
2026-04-16 15:39 61.38230 23.46546 1284 ft 252 kts 65°
2026-04-16 15:39 61.38973 23.49924 981 ft 247 kts 64°
2026-04-16 15:40 61.39678 23.52946 989 ft 216 kts 64°
2026-04-16 15:40 61.40281 23.55514 686 ft 181 kts 64°
2026-04-16 15:40 61.40778 23.57678 453 ft 151 kts 63°
2026-04-16 15:40 61.41175 23.59381 390 ft 118 kts 65°
2026-04-16 15:41 61.41849 23.62303 483 ft 297 kts 64°
2026-04-16 15:41 61.42696 23.66011 1020 ft 272 kts 64°
2026-04-16 15:41 61.43644 23.69209 1033 ft 255 kts 28°
2026-04-16 15:41 61.45245 23.68560 1079 ft 256 kts 329°
2026-04-16 15:42 61.46722 23.66308 1011 ft 266 kts 308°
2026-04-16 15:42 61.46873 23.62733 1011 ft 256 kts 246°
2026-04-16 15:42 61.46108 23.59319 1063 ft 262 kts 244°
2026-04-16 15:42 61.45288 23.55840 960 ft 271 kts 244°
2026-04-16 15:43 61.44461 23.52344 892 ft 262 kts 244°
2026-04-16 15:43 61.43650 23.49024 894 ft 248 kts 243°
2026-04-16 15:43 61.42540 23.46951 878 ft 207 kts 163°
2026-04-16 15:43 61.41216 23.48579 849 ft 239 kts 144°
2026-04-16 15:44 61.39850 23.50678 900 ft 238 kts 111°
2026-04-16 15:44 61.40008 23.53842 831 ft 211 kts 76°
2026-04-16 15:44 61.40480 23.56330 598 ft 166 kts 62°
2026-04-16 15:44 61.40981 23.58537 409 ft 170 kts 64°
2026-04-16 15:45 61.41473 23.60674 410 ft 223 kts 63°
2026-04-16 15:45 61.42312 23.64125 1217 ft 281 kts 63°
2026-04-16 15:45 61.42908 23.66537 1243 ft 282 kts 63°
2026-04-16 15:45 61.43562 23.70286 1240 ft 272 kts 93°
2026-04-16 15:46 61.42474 23.73151 1230 ft 266 kts 152°
2026-04-16 15:46 61.40233 23.75328 1203 ft 271 kts 154°
2026-04-16 15:46 61.39002 23.75836 1185 ft 268 kts 188°
2026-04-16 15:46 61.37604 23.73613 1274 ft 259 kts 240°
2026-04-16 15:47 61.36747 23.70252 1253 ft 265 kts 243°
2026-04-16 15:47 61.35932 23.66762 1226 ft 272 kts 245°
2026-04-16 15:47 61.35136 23.63194 1182 ft 277 kts 245°
2026-04-16 15:47 61.34311 23.59489 1190 ft 280 kts 245°
2026-04-16 15:48 61.33684 23.55672 1137 ft 277 kts 272°
2026-04-16 15:48 61.34387 23.52242 1111 ft 261 kts 318°
2026-04-16 15:48 61.35859 23.49964 985 ft 267 kts 328°
2026-04-16 15:48 61.37415 23.47804 980 ft 268 kts 332°
2026-04-16 15:49 61.38973 23.48698 990 ft 300 kts 67°
2026-04-16 15:49 61.39928 23.54085 622 ft 484 kts 63°
2026-04-16 15:49 61.41619 23.61312 466 ft 603 kts 64°
2026-04-16 15:49 61.43285 23.68564 1112 ft 477 kts 58°
2026-04-16 15:50 61.45774 23.70282 1722 ft 369 kts 343°
2026-04-16 15:50 61.48102 23.68522 1191 ft 339 kts 334°
2026-04-16 15:50 61.48799 23.64766 1083 ft 280 kts 243°
2026-04-16 15:50 61.47941 23.61657 960 ft 226 kts 236°
2026-04-16 15:51 61.47023 23.58886 955 ft 237 kts 234°
2026-04-16 15:51 61.46054 23.56024 999 ft 245 kts 234°
2026-04-16 15:51 61.45048 23.53043 957 ft 257 kts 234°
2026-04-16 15:51 61.44004 23.49935 870 ft 264 kts 235°
2026-04-16 15:52 61.42458 23.49230 838 ft 259 kts 148°
2026-04-16 15:52 61.40978 23.51362 850 ft 262 kts 143°
2026-04-16 15:52 61.39931 23.53929 918 ft 202 kts 87°
2026-04-16 15:52 61.40442 23.56302 636 ft 174 kts 60°
2026-04-16 15:53 61.40953 23.58437 402 ft 151 kts 64°
2026-04-16 15:53 61.41332 23.60075 390 ft 101 kts 63°
2026-04-16 15:53 61.41596 23.61226 386 ft 81 kts 64°
2026-04-16 15:53 61.41803 23.62133 370 ft 64 kts 64°
2026-04-16 15:54 61.41911 23.62618 369 ft 19 kts 78°
2026-04-16 15:54 61.41860 23.62825 370 ft 12 kts 146°
2026-04-16 15:54 61.41757 23.62805 373 ft 18 kts 204°
2026-04-16 15:54 61.41648 23.62730 377 ft 13 kts 171°
2026-04-16 15:55 61.41611 23.62903 381 ft 17 kts 92°
2026-04-16 15:55 61.41616 23.63026 383 ft 8 kts 44°
2026-04-16 15:55 61.41645 23.63054 382 ft 0 kts 24°